• în România
  • Lista ţărilor
  • Pe 7 zile
  • Temperatura apei
  • Hartă satelitară
  • Meteo pe hartă
  • Widget-uri
  • user-avatar
    Intrare

    Meteo pe oră la Zadonschino

    Astăzi, 21 Mai, Luni

    Timp Temperatura Precipitaţii Vânt Presiune Umiditate
    00:00 +10°C° 0,1 mm 5 m/s 750 mmHg 86%
    01:00 +10°C° 0,1 mm 5 m/s 751 mmHg 86%
    02:00 +10°C° 0,1 mm 5 m/s 751 mmHg 86%
    03:00 +10°C° 0,1 mm 5 m/s 751 mmHg 86%
    04:00 +10°C° 0,1 mm 5 m/s 751 mmHg 86%
    05:00 +10°C° 0,1 mm 5 m/s 752 mmHg 86%
    06:00 +10°C° 0,1 mm 5 m/s 752 mmHg 87%
    07:00 +10°C° 0,1 mm 6 m/s 752 mmHg 83%
    08:00 +11°C° 0,1 mm 6 m/s 753 mmHg 79%
    09:00 +11°C° 0,1 mm 7 m/s 753 mmHg 75%
    10:00 +12°C° 0,1 mm 7 m/s 753 mmHg 72%
    11:00 +14°C° 0,1 mm 7 m/s 754 mmHg 69%
    12:00 +14°C° 0,1 mm 7 m/s 754 mmHg 66%
    13:00 +15°C° 0 mm 7 m/s 754 mmHg 66%
    14:00 +15°C° 0 mm 7 m/s 754 mmHg 65%
    15:00 +15°C° 0 mm 7 m/s 754 mmHg 64%
    16:00 +15°C° 0 mm 7 m/s 754 mmHg 66%
    17:00 +14°C° 0 mm 6 m/s 754 mmHg 68%
    18:00 +13°C° 0 mm 6 m/s 754 mmHg 70%
    19:00 +13°C° 0 mm 6 m/s 754 mmHg 70%
    20:00 +13°C° 0 mm 5 m/s 754 mmHg 70%
    21:00 +12°C° 0 mm 5 m/s 754 mmHg 70%
    22:00 +12°C° 0 mm 5 m/s 754 mmHg 71%
    23:00 +12°C° 0 mm 5 m/s 754 mmHg 71%

    Mâine, 22 Mai, Marţi

    Timp Temperatura Precipitaţii Vânt Presiune Umiditate
    00:00 +13°C° 0 mm 5 m/s 755 mmHg 72%
    01:00 +12°C° 0,3 mm 5 m/s 755 mmHg 76%
    02:00 +12°C° 0,3 mm 5 m/s 755 mmHg 80%
    03:00 +10°C° 0,3 mm 5 m/s 755 mmHg 83%
    04:00 +10°C° 0,8 mm 5 m/s 755 mmHg 86%
    05:00 +10°C° 0,8 mm 5 m/s 755 mmHg 88%
    06:00 +10°C° 0,8 mm 5 m/s 755 mmHg 90%
    07:00 +10°C° 0,4 mm 5 m/s 755 mmHg 90%
    08:00 +10°C° 0,4 mm 5 m/s 755 mmHg 90%
    09:00 +12°C° 0,4 mm 5 m/s 755 mmHg 90%
    10:00 +13°C° 0,1 mm 5 m/s 755 mmHg 88%
    11:00 +14°C° 0,1 mm 5 m/s 755 mmHg 86%
    12:00 +15°C° 0,1 mm 5 m/s 755 mmHg 85%
    13:00 +17°C° 0 mm 4 m/s 755 mmHg 83%
    14:00 +17°C° 0 mm 4 m/s 755 mmHg 82%
    15:00 +18°C° 0 mm 4 m/s 755 mmHg 81%
    16:00 +18°C° 0 mm 3 m/s 754 mmHg 83%
    17:00 +19°C° 0 mm 2 m/s 754 mmHg 84%
    18:00 +20°C° 0 mm 1 m/s 754 mmHg 86%
    19:00 +19°C° 0 mm 1 m/s 754 mmHg 88%
    20:00 +18°C° 0 mm 1 m/s 754 mmHg 90%
    21:00 +16°C° 0 mm 1 m/s 754 mmHg 92%
    22:00 +16°C° 0,3 mm 1 m/s 754 mmHg 93%
    23:00 +16°C° 0,3 mm 1 m/s 754 mmHg 94%

    Poimâine, 23 Mai, Miercuri

    Timp Temperatura Precipitaţii Vânt Presiune Umiditate
    00:00 +15°C° 0,3 mm 1 m/s 754 mmHg 95%
    01:00 +15°C° 0,1 mm 1 m/s 754 mmHg 95%
    02:00 +15°C° 0,1 mm 1 m/s 754 mmHg 96%
    03:00 +14°C° 0,1 mm 1 m/s 753 mmHg 96%
    04:00 +15°C° 0 mm 1 m/s 753 mmHg 96%
    05:00 +15°C° 0 mm 1 m/s 753 mmHg 96%
    06:00 +15°C° 0 mm 1 m/s 753 mmHg 96%
    07:00 +18°C° 0 mm 1 m/s 753 mmHg 93%
    08:00 +19°C° 0 mm 1 m/s 753 mmHg 90%
    09:00 +20°C° 0 mm 1 m/s 754 mmHg 86%
    10:00 +21°C° 0 mm 1 m/s 753 mmHg 83%
    11:00 +22°C° 0 mm 1 m/s 753 mmHg 80%
    12:00 +23°C° 0 mm 1 m/s 753 mmHg 77%
    13:00 +24°C° 0 mm 1 m/s 753 mmHg 74%
    14:00 +24°C° 0 mm 1 m/s 753 mmHg 71%
    15:00 +25°C° 0 mm 1 m/s 753 mmHg 68%
    16:00 +25°C° 0,1 mm 1 m/s 752 mmHg 69%
    17:00 +25°C° 0,1 mm 1 m/s 752 mmHg 70%
    18:00 +24°C° 0,1 mm 1 m/s 752 mmHg 71%
    19:00 +23°C° 0,2 mm 1 m/s 752 mmHg 76%
    20:00 +21°C° 0,2 mm 1 m/s 752 mmHg 81%
    21:00 +20°C° 0,2 mm 1 m/s 752 mmHg 85%
    22:00 +19°C° 0 mm 1 m/s 752 mmHg 86%
    23:00 +19°C° 0 mm 1 m/s 752 mmHg 87%

    24 Mai, Joi

    Timp Temperatura Precipitaţii Vânt Presiune Umiditate
    00:00 +16°C° 0 mm 0 m/s 752 mmHg 89%
    01:00 +18°C° 0 mm 1 m/s 752 mmHg 89%
    02:00 +16°C° 0 mm 1 m/s 751 mmHg 90%
    03:00 +16°C° 0 mm 1 m/s 751 mmHg 90%
    04:00 +16°C° 0,4 mm 1 m/s 751 mmHg 90%
    05:00 +18°C° 0,4 mm 1 m/s 751 mmHg 90%
    06:00 +18°C° 0,4 mm 1 m/s 751 mmHg 90%
    07:00 +19°C° 0 mm 1 m/s 751 mmHg 87%
    08:00 +20°C° 0 mm 1 m/s 751 mmHg 83%
    09:00 +20°C° 0 mm 2 m/s 751 mmHg 80%
    10:00 +21°C° 0,3 mm 2 m/s 751 mmHg 75%
    11:00 +23°C° 0,3 mm 2 m/s 750 mmHg 70%
    12:00 +24°C° 0,3 mm 2 m/s 750 mmHg 66%
    13:00 +24°C° 0,3 mm 2 m/s 750 mmHg 65%
    14:00 +25°C° 0,3 mm 2 m/s 750 mmHg 64%
    15:00 +25°C° 0,3 mm 2 m/s 750 mmHg 64%
    16:00 +24°C° 0,6 mm 2 m/s 750 mmHg 67%
    17:00 +24°C° 0,6 mm 2 m/s 750 mmHg 71%
    18:00 +23°C° 0,6 mm 2 m/s 749 mmHg 75%
    19:00 +21°C° 0,2 mm 2 m/s 750 mmHg 78%
    20:00 +20°C° 0,2 mm 2 m/s 750 mmHg 81%
    21:00 +18°C° 0,2 mm 2 m/s 750 mmHg 84%
    22:00 +18°C° 0 mm 3 m/s 750 mmHg 86%
    23:00 +17°C° 0 mm 4 m/s 750 mmHg 88%

    25 Mai, Vineri

    Timp Temperatura Precipitaţii Vânt Presiune Umiditate
    00:00 +15°C° 0 mm 5 m/s 751 mmHg 90%
    01:00 +15°C° 0 mm 6 m/s 751 mmHg 91%
    02:00 +14°C° 0 mm 6 m/s 751 mmHg 92%
    03:00 +14°C° 0 mm 7 m/s 752 mmHg 92%
    04:00 +12°C° 0 mm 7 m/s 752 mmHg 90%
    05:00 +12°C° 0 mm 7 m/s 753 mmHg 89%
    06:00 +11°C° 0 mm 7 m/s 753 mmHg 87%
    07:00 +12°C° 0 mm 7 m/s 753 mmHg 84%
    08:00 +12°C° 0 mm 7 m/s 754 mmHg 81%
    09:00 +12°C° 0 mm 7 m/s 754 mmHg 78%
    10:00 +14°C° 0 mm 7 m/s 755 mmHg 74%
    11:00 +15°C° 0 mm 7 m/s 755 mmHg 71%
    12:00 +16°C° 0 mm 7 m/s 755 mmHg 67%
    13:00 +16°C° 0 mm 7 m/s 756 mmHg 64%
    14:00 +17°C° 0 mm 7 m/s 756 mmHg 61%
    15:00 +17°C° 0 mm 7 m/s 756 mmHg 59%
    16:00 +17°C° 0 mm 6 m/s 756 mmHg 60%
    17:00 +16°C° 0 mm 6 m/s 756 mmHg 62%
    18:00 +16°C° 0 mm 5 m/s 756 mmHg 63%
    19:00 +14°C° 0 mm 5 m/s 757 mmHg 65%
    20:00 +13°C° 0 mm 5 m/s 757 mmHg 67%
    21:00 +12°C° 0 mm 4 m/s 758 mmHg 69%
    22:00 +11°C° 0 mm 4 m/s 758 mmHg 70%
    23:00 +10°C° 0 mm 4 m/s 758 mmHg 70%

    26 Mai, Sâmbătă

    Timp Temperatura Precipitaţii Vânt Presiune Umiditate
    00:00 +8°C° 0 mm 4 m/s 759 mmHg 70%
    01:00 +8°C° 0 mm 4 m/s 759 mmHg 72%
    02:00 +8°C° 0 mm 3 m/s 759 mmHg 73%
    03:00 +7°C° 0 mm 3 m/s 759 mmHg 75%
    04:00 +8°C° 0 mm 3 m/s 760 mmHg 75%
    05:00 +7°C° 0 mm 4 m/s 760 mmHg 76%
    06:00 +7°C° 0 mm 4 m/s 760 mmHg 76%
    07:00 +10°C° 0 mm 4 m/s 760 mmHg 71%
    08:00 +11°C° 0 mm 4 m/s 761 mmHg 67%
    09:00 +13°C° 0 mm 4 m/s 761 mmHg 62%
    10:00 +14°C° 0 mm 4 m/s 761 mmHg 60%
    11:00 +15°C° 0 mm 4 m/s 761 mmHg 57%
    12:00 +17°C° 0 mm 4 m/s 761 mmHg 55%
    13:00 +17°C° 0 mm 4 m/s 760 mmHg 54%
    14:00 +17°C° 0 mm 4 m/s 760 mmHg 54%
    15:00 +18°C° 0 mm 4 m/s 760 mmHg 54%
    16:00 +18°C° 0 mm 4 m/s 760 mmHg 57%
    17:00 +17°C° 0 mm 4 m/s 759 mmHg 59%
    18:00 +17°C° 0 mm 3 m/s 759 mmHg 62%
    19:00 +16°C° 0 mm 3 m/s 759 mmHg 66%
    20:00 +13°C° 0 mm 3 m/s 759 mmHg 71%
    21:00 +12°C° 0 mm 2 m/s 759 mmHg 76%
    22:00 +12°C° 0 mm 2 m/s 759 mmHg 77%
    23:00 +10°C° 0 mm 2 m/s 759 mmHg 79%
    Arată mai mult